Location: Buch
(49.7331°N, 12.1098°E)
Time: 16:03:24
(UTC+00:00)

Terra - Pass Details

Date: 12 May 2021
Orbit: 701 x 703 km, 98.2° (Epoch: 18 June)

Event Time Altitude Azimuth Distance (km) Brightness Sun altitude
Exits shadow 20:37:05 22° 144° (SE) 1,509 2.9 -14.2°
Maximum altitude 20:40:01 60° 71° (ENE) 811 2.0 -14.5°
Drops below altitude 10° 20:44:44 10° 352° (N) 2,184 5.4 -14.9°
Sets 20:47:01 0° 349° (N) 3,106 6.4 -15.1°
